Location: *
(45.5667°S, 177.5167°W)
Time: 17:07:24
(UTC+00:00)

Cosmos 1980 Rocket - Pass Details

Date: 29 May 2022
Orbit: 827 x 851 km, 71.0° (Epoch: 07 July)

Event Time Altitude Azimuth Distance (km) Brightness Sun altitude
Rises 05:33:01 0° 207° (SSW) 3,411 5.5 -12.8°
Reaches altitude 10° 05:35:29 10° 206° (SSW) 2,469 4.7 -13.2°
Maximum altitude 05:41:10 89° 114° (ESE) 845 2.2 -14.2°
Drops below altitude 10° 05:46:46 10° 25° (NNE) 2,439 4.5 -15.1°
Sets 05:49:11 0° 24° (NNE) 3,366 5.2 -15.5°
